Weather History for KBEH - October, 2012

Change the Weather History Date:

Sunday, October 28, 2012

  Actual Average Record
Temperature  
Mean Temperature 40 °F -  
Max Temperature 48 °F 58 °F 76 °F (1989)
Min Temperature 33 °F 39 °F 26 °F (2005)
Degree Days  
Heating Degree Days 24    
Moisture  
Dew Point 29 °F    
Average Humidity 62    
Maximum Humidity 85    
Minimum Humidity 44    
Precipitation  
Precipitation 0.00 in - - ()
Sea Level Pressure  
Sea Level Pressure 30.25 in    
Wind  
Wind Speed 5 mph (NE)    
Max Wind Speed 13 mph    
Max Gust Speed 21 mph    
Visibility 10 miles    
Events      
Averages and records for this station are not official NWS values.
T = Trace of Precipitation, MM = Missing Value Source: NWS Daily Summary

Daily Weather History Graph

Daily Weather History Graph

Search for Another Location

Airport or City:

Trip Planner

Search our weather history database for the weather conditions in past years. The results will help you decide how hot, cold, wet, or windy it might be!

Date:

Astronomy

Oct. 28, 2012 Rise Set
Actual Time 8:14 AM EDT 6:43 PM EDT
Civil Twilight 7:45 AM EDT 7:12 PM EDT
Nautical Twilight 7:12 AM EDT 7:45 PM EDT
Astronomical Twilight 6:40 AM EDT 8:18 PM EDT
Moon 6:01 PM EDT (10/28) 7:06 AM EDT (10/28)
Length of Visible Light 11h 27m
Length of Day
10h 29m
Waxing Gibbous, 99% of the Moon is Illuminated
Oct 28
Waxing Gibbous
Oct 29
Full
Nov 6
Last Quarter
Nov 13
New
Nov 20
First Quarter

Hourly Weather History & Observations

Time (EDT) Temp. Windchill Dew Point Humidity Pressure Visibility Wind Dir Wind Speed Gust Speed Precip Events Conditions
12:53 AM 39.0 °F - 30.9 °F 73% 30.26 in 10.0 mi Calm Calm - N/A   Clear
2:53 AM 37.9 °F 32.7 °F 30.9 °F 76% 30.26 in 10.0 mi NNE 6.9 mph - N/A   Overcast
3:53 AM 37.0 °F 33.3 °F 30.9 °F 79% 30.25 in 10.0 mi NE 4.6 mph - N/A   Clear
4:53 AM 36.0 °F 30.3 °F 30.0 °F 79% 30.26 in 10.0 mi NE 6.9 mph - N/A   Mostly Cloudy
5:53 AM 37.0 °F 31.0 °F 30.9 °F 79% 30.27 in 10.0 mi ENE 8.1 mph - N/A   Mostly Cloudy
6:53 AM 35.1 °F 32.2 °F 30.0 °F 82% 30.28 in 10.0 mi NNE 3.5 mph - N/A   Clear
7:53 AM 34.0 °F 31.0 °F 28.9 °F 82% 30.28 in 10.0 mi NE 3.5 mph - N/A   Mostly Cloudy
8:53 AM 33.1 °F - 28.9 °F 85% 30.29 in 10.0 mi Calm Calm - N/A   Scattered Clouds
9:53 AM 39.0 °F 34.8 °F 28.0 °F 65% 30.28 in 10.0 mi Variable 5.8 mph - N/A   Clear
10:53 AM 42.1 °F 36.6 °F 26.1 °F 53% 30.27 in 10.0 mi NNE 9.2 mph 18.4 mph N/A   Clear
11:53 AM 44.1 °F 37.7 °F 27.0 °F 51% 30.27 in 10.0 mi NE 12.7 mph 20.7 mph N/A   Clear
1:53 PM 46.0 °F 41.9 °F 30.0 °F 54% 30.24 in 10.0 mi North 8.1 mph - N/A   Mostly Cloudy
3:53 PM 48.0 °F - 30.9 °F 52% 30.21 in 10.0 mi Variable 6.9 mph - N/A   Mostly Cloudy
4:53 PM 48.0 °F - 32.0 °F 54% 30.21 in 10.0 mi Variable 4.6 mph 18.4 mph N/A   Mostly Cloudy
5:53 PM 46.9 °F - 32.0 °F 56% 30.21 in 10.0 mi Variable 5.8 mph - N/A   Overcast
6:53 PM 46.0 °F 43.9 °F 27.0 °F 47% 30.22 in 10.0 mi NNE 4.6 mph - N/A   Mostly Cloudy
7:53 PM 45.0 °F 41.8 °F 24.1 °F 44% 30.23 in 10.0 mi NE 5.8 mph - N/A   Clear
8:53 PM 44.1 °F 41.5 °F 24.1 °F 45% 30.23 in 10.0 mi Variable 4.6 mph - N/A   Clear
9:53 PM 44.1 °F 40.8 °F 25.0 °F 47% 30.22 in 10.0 mi Variable 5.8 mph - N/A   Clear
10:53 PM 44.1 °F 40.1 °F 27.0 °F 51% 30.22 in 10.0 mi Variable 6.9 mph - N/A   Clear
11:53 PM 42.1 °F 37.7 °F 27.0 °F 55% 30.23 in 10.0 mi NE 6.9 mph - N/A   Clear